Location: Drummondville
(45.8830°N, 72.4830°W)
Time: 05:30:29
(UTC-05:00)

N. Korean satellite - Pass Details

Date: 13 November 2017
Orbit: 460 x 515 km, 97.2° (Epoch: 18 November)

Event Time Altitude Azimuth Distance (km) Brightness Sun altitude
Rises 17:36:52 0° 162° (SSE) 2,475 10.1 -13.4°
Reaches altitude 10° 17:38:53 10° 160° (SSE) 1,609 9.1 -13.7°
Maximum altitude 17:42:19 72° 76° (ENE) 496 6.3 -14.3°
Drops below altitude 10° 17:45:50 10° 352° (N) 1,643 9.2 -14.9°
Sets 17:47:55 0° 350° (N) 2,534 10.2 -15.3°
